KC1KAD Weather Reports


time (UTC)temp
F
wind
direction
speed
knots
gust
knots
rain 1hr
in
rain 24hr
in
rain mn
in
humidity
%
barometer
mb
20260509013101 56 205 1.7 2.6 0.00 0.00 0.00 80 1014.9
20260509012601 56 194 1.7 2.6 0.00 0.00 0.00 80 1014.9
20260509011600 56 208 1.7 2.6 0.00 0.00 0.00 81 1014.9
20260509011323 56 186 1.7 2.6 0.00 0.00 0.00 80 1014.8
20260509010601 56 206 1.7 2.6 0.00 0.00 0.00 82 1014.7
20260509010101 57 201 1.7 1.7 0.00 0.00 0.00 82 1014.7
20260509005601 57 192 1.7 1.7 0.00 0.00 0.00 80 1014.6
20260509005100 57 200 1.7 2.6 0.00 0.00 0.00 79 1014.7
20260509004601 57 204 1.7 2.6 0.00 0.00 0.00 79 1014.7
20260509004101 57 196 1.7 2.6 0.00 0.00 0.00 78 1014.5
20260509003601 57 191 1.7 2.6 0.00 0.00 0.00 77 1014.6
20260509003101 58 215 1.7 3.5 0.00 0.00 0.00 76 1014.6
20260509002818 58 197 1.7 3.5 0.00 0.00 0.00 77 1014.5
20260509002101 58 203 2.6 4.3 0.00 0.00 0.00 76 1014.6
20260509001601 58 185 2.6 4.3 0.00 0.00 0.00 73 1014.5
20260509000600 58 195 2.6 4.3 0.00 0.00 0.00 72 1014.6
20260509000100 59 192 2.6 3.5 0.00 0.00 0.00 72 1014.5
20260508235601 59 199 2.6 3.5 0.00 0.00 0.00 72 1014.3
20260508235101 59 197 2.6 3.5 0.00 0.00 0.00 72 1014.3
20260508234601 59 199 1.7 3.5 0.00 0.00 0.00 72 1014.3
20260508234101 59 199 1.7 3.5 0.00 0.00 0.00 73 1014.2
20260508233601 59 191 1.7 2.6 0.00 0.00 0.00 71 1014.2
20260508233100 60 206 1.7 3.5 0.00 0.00 0.00 71 1014.1
20260508232826 60 206 1.7 3.5 0.00 0.00 0.00 69 1014.2
20260508231601 60 219 1.7 3.5 0.00 0.00 0.00 68 1014.1
20260508231101 60 200 2.6 3.5 0.00 0.00 0.00 68 1014.2
20260508230601 60 189 2.6 4.3 0.00 0.00 0.00 70 1014.2
20260508230101 60 186 2.6 4.3 0.00 0.00 0.00 70 1014.3
20260508225600 61 194 1.7 3.5 0.00 0.00 0.00 69 1014.2
20260508225320 61 195 1.7 3.5 0.00 0.00 0.00 67 1014.2
20260508224600 61 200 1.7 3.5 0.00 0.00 0.00 66 1014.1
20260508224101 61 192 1.7 3.5 0.00 0.00 0.00 67 1014.0
20260508223601 61 179 1.7 3.5 0.00 0.00 0.00 66 1014.2
20260508222601 61 220 1.7 3.5 0.00 0.00 0.00 67 1014.0
20260508222323 61 181 1.7 3.5 0.00 0.00 0.00 68 1014.2
20260508221819 62 187 1.7 3.5 0.00 0.00 0.00 67 1014.1
20260508221102 61 200 1.7 3.5 0.00 0.00 0.00 66 1014.1
20260508220602 62 198 1.7 3.5 0.00 0.00 0.00 70 1014.0
20260508215601 62 201 1.7 3.5 0.00 0.00 0.00 66 1014.1
20260508215101 62 187 2.6 3.5 0.00 0.00 0.00 66 1014.0
20260508214821 62 178 2.6 3.5 0.00 0.00 0.00 66 1014.0
20260508214101 62 191 2.6 4.3 0.00 0.00 0.00 64 1014.0
20260508213601 62 194 2.6 4.3 0.00 0.00 0.00 63 1013.8
20260508213100 62 184 2.6 5.2 0.00 0.00 0.00 63 1013.9
20260508212600 63 177 2.6 5.2 0.00 0.00 0.00 63 1013.9
20260508212322 63 259 2.6 4.3 0.00 0.00 0.00 62 1014.1
20260508211824 63 195 2.6 5.2 0.00 0.00 0.00 64 1014.2
20260508211101 63 185 2.6 5.2 0.00 0.00 0.00 62 1014.0
20260508210823 63 195 2.6 5.2 0.00 0.00 0.00 63 1014.2
20260508205819 63 198 2.6 5.2 0.00 0.00 0.00 63 1013.9
20260508205100 63 196 2.6 5.2 0.00 0.00 0.00 62 1014.0
20260508204818 63 194 2.6 5.2 0.00 0.00 0.00 62 1013.8
20260508203601 63 192 3.5 6.1 0.00 0.00 0.00 60 1013.9
20260508202601 63 190 3.5 4.3 0.00 0.00 0.00 62 1014.0
20260508202101 64 190 3.5 5.2 0.00 0.00 0.00 61 1014.0
20260508201601 64 165 3.5 5.2 0.00 0.00 0.00 60 1014.0
20260508201100 64 187 3.5 5.2 0.00 0.00 0.00 61 1014.1
20260508200601 64 183 3.5 6.1 0.00 0.00 0.00 58 1014.2
20260508200100 64 185 3.5 6.1 0.00 0.00 0.00 57 1014.2
20260508195600 64 183 2.6 5.2 0.00 0.00 0.00 59 1014.2
20260508195100 65 188 2.6 7.0 0.00 0.00 0.00 59 1014.2
20260508194826 65 117 1.7 7.0 0.00 0.00 0.00 61 1014.2
20260508194100 65 185 1.7 4.3 0.00 0.00 0.00 57 1014.1
20260508193601 65 129 2.6 5.2 0.00 0.00 0.00 56 1014.2
20260508193101 65 171 3.5 6.1 0.00 0.00 0.00 57 1014.5
20260508192601 65 187 3.5 6.1 0.00 0.00 0.00 56 1014.6
20260508192101 65 179 2.6 5.2 0.00 0.00 0.00 56 1014.9
20260508191601 65 196 2.6 5.2 0.00 0.00 0.00 56 1015.1
20260508190601 65 211 2.6 5.2 0.00 0.00 0.00 56 1015.3
20260508190319 65 127 2.6 5.2 0.00 0.00 0.00 57 1015.5
20260508185600 65 185 3.5 5.2 0.00 0.00 0.00 55 1016.0
20260508185317 65 217 3.5 7.0 0.00 0.00 0.00 55 1015.8
20260508184603 65 151 2.6 7.0 0.00 0.00 0.00 54 1015.8
20260508184103 65 181 2.6 5.2 0.00 0.00 0.00 56 1015.8
20260508183603 65 69 2.6 5.2 0.00 0.00 0.00 55 1015.6
20260508183103 65 133 3.5 5.2 0.00 0.00 0.00 55 1015.4
20260508182603 65 197 3.5 6.1 0.00 0.00 0.00 57 1015.8
20260508182326 65 182 3.5 6.1 0.00 0.00 0.00 56 1016.0
20260508181829 65 179 3.5 5.2 0.00 0.00 0.00 56 1016.4
20260508181102 64 184 3.5 5.2 0.00 0.00 0.00 58 1016.0
20260508175602 63 183 3.5 5.2 0.00 0.00 0.00 58 1015.8
20260508175103 63 210 2.6 4.3 0.00 0.00 0.00 57 1015.8
20260508174603 63 173 3.5 5.2 0.00 0.00 0.00 59 1016.0
20260508174103 63 195 3.5 5.2 0.00 0.00 0.00 58 1016.0
20260508173602 63 187 3.5 5.2 0.00 0.00 0.00 58 1015.7
20260508173328 63 192 2.6 4.3 0.00 0.00 0.00 58 1016.2
20260508172602 63 189 2.6 4.3 0.00 0.00 0.00 56 1016.7
20260508172102 63 191 2.6 3.5 0.00 0.00 0.00 56 1017.0
20260508171602 63 188 2.6 3.5 0.00 0.00 0.00 57 1016.9
20260508171102 64 191 2.6 3.5 0.00 0.00 0.00 56 1017.1
20260508170602 63 188 2.6 3.5 0.00 0.00 0.00 60 1016.7
20260508165602 62 190 2.6 5.2 0.00 0.00 0.00 57 1016.8
20260508165101 62 122 2.6 7.8 0.00 0.00 0.00 58 1016.9
20260508164603 62 154 2.6 7.8 0.00 0.00 0.00 58 1016.8
20260508164102 62 160 2.6 13.9 0.00 0.00 0.00 57 1016.8
20260508163602 62 149 6.1 13.9 0.00 0.00 0.00 58 1017.0
20260508163102 62 53 9.6 13.9 0.00 0.00 0.00 59 1017.2
20260508162827 62 62 9.6 13.9 0.00 0.00 0.00 60 1017.1
20260508162102 62 64 9.6 13.9 0.00 0.00 0.00 60 1017.2
20260508161102 62 55 9.6 13.9 0.00 0.00 0.00 60 1017.6
20260508160602 62 68 8.7 13.9 0.00 0.00 0.00 61 1017.5
20260508155602 62 48 5.2 9.6 0.00 0.00 0.00 61 1017.6
20260508155102 61 70 4.3 9.6 0.00 0.00 0.00 62 1017.5
20260508154102 60 121 3.5 6.1 0.00 0.00 0.00 63 1017.6
20260508153602 60 125 3.5 6.1 0.00 0.00 0.00 65 1017.8
20260508152819 60 190 3.5 7.0 0.00 0.00 0.00 64 1017.7
20260508152101 60 176 3.5 7.0 0.00 0.00 0.00 67 1017.8
20260508151602 59 179 3.5 7.0 0.00 0.00 0.00 69 1017.9
20260508151102 59 221 2.6 3.5 0.00 0.00 0.00 71 1017.8
20260508150602 59 179 2.6 3.5 0.00 0.00 0.00 68 1017.8
20260508150321 58 149 2.6 3.5 0.00 0.00 0.00 71 1017.9
20260508145601 58 181 2.6 3.5 0.00 0.00 0.00 74 1017.8
20260508145101 58 211 2.6 3.5 0.00 0.00 0.00 69 1017.8
20260508144102 57 181 0.9 2.6 0.00 0.00 0.00 79 1017.9
20260508143603 56 171 0.9 1.7 0.00 0.00 0.00 80 1017.9
20260508143103 55 180 0.9 1.7 0.00 0.00 0.00 82 1018.0
20260508142603 55 187 0.9 2.6 0.00 0.00 0.00 83 1018.1
20260508142102 54 158 1.7 2.6 0.00 0.00 0.00 84 1018.1
20260508135603 49 57 0.0 0.9 0.00 0.00 0.00 92 1018.3
20260508135102 49 165 0.9 1.7 0.00 0.00 0.00 94 1018.3
20260508134818 49 158 0.9 2.6 0.00 0.00 0.00 98 1018.3
20260508134103 48 152 0.9 2.6 0.00 0.00 0.00 99 1018.4
20260508133602 48 206 0.9 1.7 0.00 0.00 0.00 99 1018.4
20260508133102 47 173 0.9 1.7 0.00 0.00 0.00 99 1018.5
20260508132602 47 259 0.9 1.7 0.00 0.00 0.00 100 1018.5
20260508132102 47 182 0.0 1.7 0.00 0.00 0.00 100 1018.6
20260508131602 46 0 0.9 0.9 0.00 0.00 0.00 100 1018.6
20260508131323 46 307 0.9 1.7 0.00 0.00 0.00 100 1018.5
20260508130602 46 208 0.9 1.7 0.00 0.00 0.00 100 1018.5
20260508125602 45 265 0.0 0.9 0.00 0.01 0.00 99 1018.4
20260508125102 44 30 0.0 0.9 0.00 0.02 0.00 99 1018.3
20260508124602 44 288 0.0 1.7 0.00 0.03 0.00 99 1018.2
20260508124324 44 147 0.0 1.7 0.00 0.05 0.00 99 1018.2
20260508123602 44 218 0.0 0.9 0.00 0.05 0.00 99 1018.2
20260508122827 43 52 0.9 0.9 0.00 0.06 0.00 99 1018.1
20260508122322 43 214 0.9 1.7 0.00 0.06 0.00 99 1018.1
20260508121601 43 187 0.0 1.7 0.00 0.07 0.00 99 1017.9
20260508121102 43 166 0.0 0.9 0.00 0.10 0.00 99 1017.8
20260508120602 43 0 0.0 0.9 0.00 0.15 0.00 99 1017.7
20260508115822 42 0 0.0 1.7 0.00 0.18 0.00 99 1017.5
20260508115102 42 0 0.9 1.7 0.00 0.19 0.00 99 1017.5
20260508114601 42 257 0.9 1.7 0.00 0.20 0.00 99 1017.4
20260508114101 42 236 0.0 1.7 0.00 0.22 0.00 98 1017.4
20260508113601 42 270 0.0 0.9 0.00 0.26 0.00 98 1017.2
20260508113101 42 229 0.9 1.7 0.00 0.29 0.00 98 1017.2
20260508112602 42 221 0.9 1.7 0.00 0.30 0.00 98 1017.1
20260508112102 42 214 0.0 1.7 0.00 0.30 0.00 98 1017.0
20260508111602 42 0 0.0 0.9 0.00 0.31 0.00 98 1016.9
20260508111102 43 0 0.0 0.9 0.00 0.33 0.00 98 1016.8
20260508110602 43 254 0.0 0.9 0.00 0.34 0.00 98 1016.8
20260508105826 44 249 0.9 1.7 0.00 0.42 0.00 98 1016.5
20260508105103 44 355 0.9 1.7 0.00 0.46 0.00 98 1016.4
20260508104602 43 313 0.9 1.7 0.00 0.48 0.00 98 1016.3
20260508104319 43 258 0.9 1.7 0.00 0.50 0.00 98 1016.3
20260508103602 43 0 0.9 1.7 0.00 0.52 0.00 97 1016.2
20260508103102 43 260 0.9 1.7 0.00 0.53 0.00 97 1016.1
20260508102602 43 310 0.9 0.9 0.00 0.53 0.00 97 1016.1
20260508102326 43 294 0.9 0.9 0.00 0.53 0.00 97 1016.1
20260508101602 44 258 0.9 0.9 0.00 0.53 0.00 97 1016.0
20260508101103 44 287 0.9 0.9 0.00 0.57 0.00 96 1016.0
20260508100603 44 273 0.0 0.9 0.00 0.59 0.00 96 1016.0
20260508095824 45 0 0.0 0.9 0.00 0.66 0.00 97 1015.7
20260508095330 45 281 0.0 0.9 0.00 0.66 0.00 96 1015.7
20260508094602 45 0 0.9 0.9 0.00 0.66 0.00 96 1015.7
20260508094103 45 267 0.9 0.9 0.00 0.66 0.00 96 1015.6
20260508093602 46 278 0.0 0.9 0.00 0.66 0.00 96 1015.5
20260508093103 46 27 0.0 0.9 0.00 0.66 0.00 96 1015.4
20260508092828 46 274 0.0 0.9 0.00 0.66 0.00 96 1015.3
20260508092102 46 0 0.0 0.9 0.00 0.67 0.00 96 1015.3
20260508090603 46 342 0.9 1.7 0.00 0.67 0.00 96 1015.3
20260508085820 46 357 0.9 1.7 0.00 0.68 0.00 96 1015.4
20260508085102 47 291 0.9 1.7 0.00 0.68 0.00 95 1015.5
20260508084602 47 312 0.9 1.7 0.00 0.68 0.00 95 1015.4
20260508084102 47 357 0.9 1.7 0.00 0.68 0.00 96 1015.3
20260508083602 47 280 0.9 1.7 0.00 0.68 0.00 96 1015.3
20260508083103 47 280 0.9 1.7 0.00 0.68 0.00 96 1015.3
20260508082823 47 313 0.9 1.7 0.00 0.69 0.00 96 1015.3
20260508082102 47 0 0.0 0.9 0.00 0.69 0.00 96 1015.4
20260508081826 46 356 0.9 0.9 0.00 0.69 0.00 96 1015.4
20260508081102 46 20 0.0 0.9 0.00 0.69 0.00 96 1015.2
20260508080602 46 32 0.0 0.9 0.00 0.69 0.00 95 1015.2
20260508075602 46 275 0.0 0.9 0.00 0.72 0.00 95 1015.2
20260508075325 46 298 0.0 0.9 0.00 0.72 0.00 95 1015.2
20260508074830 46 0 0.0 0.9 0.00 0.72 0.00 95 1015.1
20260508074102 46 308 0.0 0.9 0.00 0.72 0.00 95 1015.1
20260508073101 47 272 0.9 0.9 0.00 0.73 0.00 94 1014.9
20260508072602 47 185 0.9 0.9 0.00 0.73 0.00 94 1015.0
20260508071326 47 0 0.9 0.9 0.00 0.76 0.00 93 1015.0
20260508070829 48 342 0.9 1.7 0.00 0.80 0.00 93 1015.0
20260508065602 48 327 0.9 1.7 0.00 0.84 0.00 93 1015.2
20260508065103 47 281 0.9 0.9 0.00 0.84 0.00 94 1015.2
20260508064828 48 289 0.9 0.9 0.00 0.84 0.00 94 1015.2
20260508063603 48 269 0.9 0.9 0.00 0.84 0.00 94 1015.0
20260508063102 48 274 0.0 0.9 0.00 0.85 0.00 94 1015.0
20260508062602 48 278 0.9 0.9 0.00 0.89 0.00 94 1014.9
20260508062102 48 266 0.9 1.7 0.00 0.91 0.00 94 1014.9
20260508061602 48 287 0.9 1.7 0.00 0.91 0.00 94 1015.0
20260508061102 48 272 0.0 0.9 0.00 0.91 0.00 94 1014.9
20260508060602 49 292 0.0 0.9 0.00 0.91 0.00 94 1015.0
20260508055602 49 82 0.9 1.7 0.00 0.91 0.00 94 1015.0
20260508054822 49 299 0.9 1.7 0.00 0.91 0.00 94 1015.0
20260508054327 49 148 0.0 1.7 0.00 0.92 0.00 94 1015.0
20260508053825 49 315 0.0 1.7 0.00 0.93 0.00 94 1015.1
20260508053102 49 295 0.9 2.6 0.00 0.95 0.00 94 1015.0
20260508052602 49 293 0.9 2.6 0.00 0.97 0.00 93 1015.1
20260508051602 50 0 0.9 1.7 0.00 1.03 0.00 93 1015.0
20260508051102 50 271 0.9 1.7 0.00 1.07 0.00 92 1015.0
20260508050602 50 342 0.9 1.7 0.00 1.10 0.00 92 1015.1
20260508045602 50 301 0.0 0.9 0.00 1.15 0.00 92 1015.1
20260508045101 50 253 0.0 0.9 0.00 1.16 0.00 92 1015.0
20260508044546 50 6 0.0 0.9 0.00 1.17 0.00 91 1014.9
20260508044031 50 227 0.0 0.9 0.00 1.20 0.00 91 1014.9
20260508043531 50 0 0.0 1.7 0.00 1.23 0.00 91 1014.9
20260508043032 51 0 0.9 1.7 0.00 1.25 0.00 90 1014.9
20260508042532 51 316 0.9 1.7 0.00 1.27 0.00 90 1015.1
20260508042032 51 300 0.9 1.7 0.00 1.31 0.00 90 1015.1
20260508041531 51 326 0.9 1.7 0.00 1.32 0.00 90 1014.9
20260508040530 51 342 0.9 1.7 0.00 1.35 0.00 90 1014.9
20260508040030 51 241 0.9 1.7 0.00 1.36 0.00 89 1014.9
20260508035530 51 280 0.9 1.7 0.00 1.36 1.36 89 1014.9
20260508035031 51 307 0.9 1.7 0.00 1.36 1.36 89 1014.9
20260508034531 51 339 0.9 0.9 0.00 1.36 1.36 89 1015.1
20260508034031 51 289 0.9 1.7 0.00 1.37 1.36 89 1014.9
20260508033529 51 315 0.9 1.7 0.00 1.37 1.36 89 1014.9
20260508033030 50 303 0.9 0.9 0.00 1.38 1.36 88 1015.0
20260508032749 51 6 0.0 0.9 0.00 1.40 1.36 88 1015.0
20260508032029 51 278 0.0 0.9 0.00 1.40 1.36 87 1014.9
20260508031529 51 10 0.0 0.9 0.00 1.40 1.36 88 1015.0
20260508031253 51 302 0.9 0.9 0.00 1.40 1.36 87 1014.9
20260508030529 51 352 0.9 0.9 0.00 1.40 1.36 86 1015.0
20260508030029 51 345 0.9 1.7 0.00 1.40 1.36 85 1015.0
20260508025529 51 285 0.9 1.7 0.00 1.40 1.36 85 1015.0
20260508025249 51 0 0.9 1.7 0.00 1.40 1.36 84 1014.9
20260508024530 51 333 0.9 1.7 0.00 1.40 1.36 84 1014.8
20260508024029 52 349 0.9 1.7 0.00 1.40 1.36 83 1014.8
20260508023529 52 310 0.9 0.9 0.00 1.40 1.36 83 1014.8
20260508023248 52 28 0.0 1.7 0.00 1.40 1.36 83 1014.8
20260508022529 52 3 0.0 1.7 0.00 1.40 1.36 83 1014.9
20260508022029 52 272 0.0 1.7 0.00 1.40 1.36 82 1014.8
20260508021529 52 335 0.0 1.7 0.00 1.40 1.36 82 1014.6
20260508021029 52 0 0.9 1.7 0.00 1.40 1.36 82 1014.6
20260508020529 52 338 0.9 1.7 0.00 1.40 1.36 83 1014.6
20260508020028 52 314 0.9 1.7 0.00 1.40 1.36 83 1014.6
20260508015529 52 336 0.9 1.7 0.00 1.40 1.36 84 1014.3
20260508014529 52 0 0.0 0.9 0.00 1.40 1.36 84 1014.1
20260508014245 53 295 0.0 1.7 0.00 1.40 1.36 84 1014.1